Location: ??????
(55.2000°N, 38.3000°E)
Time: 01:45:04
(UTC+00:00)

NOSS 2-2 (D) - Pass Details

Date: 15 November 2025
Orbit: 385 x 1704 km, 63.3° (Epoch: 12 December)

Event Time Altitude Azimuth Distance (km) Brightness Sun altitude
Exits shadow 03:13:15 26° 307° (NW) 1,009 4.1 -14.9°
Maximum altitude 03:15:15 84° 222° (SW) 553 3.2 -14.6°
Drops below altitude 10° 03:19:55 10° 133° (SE) 2,134 7.3 -13.9°
Sets 03:22:40 0° 133° (SE) 3,270 8.4 -13.5°
